Regional Weather Roundup
Issued by NWS

Home | Current Version | Previous Version | Text Only | Print | Product List | Glossary Off
Versions: 1 2 3 4 5 6 7 8 9 10 11 12 13 14 15 16 17 18 19 20 21 22 23 24 25 26

000
ASUS45 KSLC 260710
RWRUT

UTAH REGIONAL WEATHER ROUNDUP
NATIONAL WEATHER SERVICE SALT LAKE CITY UT
100 AM MDT THU MAY 26 2016

UTZ001>011-023>025-260800-

NORTHERN UTAH

CITY           SKY/WX    TMP DP  RH WIND       PRES   REMARKS
BRIGHAM CITY     N/A     47  42  81 CALM      30.04S
HILL AFB       PTCLDY    50  40  69 E10       30.04S
LOGAN          CLEAR     44  41  89 CALM      30.06F
OGDEN          PTCLDY    49  42  77 S5        30.03S
PROVO AIRPORT  MOCLDY    52  39  62 N6        30.03R
SALT LAKE CITY PTCLDY    55  44  66 W5        30.02F
VERNAL         CLOUDY    50  33  52 NE6       30.01F
WENDOVER       CLOUDY    55  36  47 CALM      30.05S
HEBER CITY     PTCLDY    41  32  70 CALM      30.04S
WEST JORDAN    PTCLDY    50  43  76 SE3       30.04F

$$

UTZ012>022-026-027-260800-

SOUTHERN/CENTRAL UTAH

CITY           SKY/WX    TMP DP  RH WIND       PRES   REMARKS
BLANDING       PTCLDY    49  17  27 CALM      30.04S
BRYCE CANYON   MOCLDY    46  21  37 N9        30.07S
CEDAR CITY     CLOUDY    51  31  46 N7        30.02S
DELTA          MOCLDY    50  41  71 SW5       30.03F
MILFORD        PTCLDY    51  37  58 NW13      30.01F
MOAB/CYNLANDS  MOCLDY    56  15  20 CALM      29.89F
PRICE          MOCLDY    53  24  32 NW5       29.99F
ST GEORGE      MOSUNNY   70  25  18 SW20      29.94S
KANAB          CLOUDY    61  25  25 S8        30.03R

$$

REGIONAL REPORTS     COLORADO/ARIZONA

CITY           SKY/WX    TMP DP  RH WIND       PRES   REMARKS
CRAIG, CO      CLEAR     39  31  72 S5        30.07S
GRAND JUNCTION CLOUDY    55  24  30 SE8       29.94S
RIFLE          CLOUDY    47  28  47 E3        30.00S
MONTROSE       CLEAR     55  20  25 SE10      30.00S
CORTEZ         CLEAR     44  26  49 E8        30.01S
PAGE, AZ       MOCLDY    66  22  18 SW5       29.91S
GRAND CANYON   PTCLDY    38  21  50 E3        30.06F
KINGMAN        PTCLDY    57  32  38 MISG      29.97F
FLAGSTAFF      CLEAR     36  21  54 CALM      30.06F

$$

REGIONAL REPORTS    NEVADA/IDAHO/WYOMING

CITY           SKY/WX    TMP DP  RH WIND       PRES   REMARKS
LAS VEGAS, NV  PTCLDY    66  32  28 W6        29.87F
ELY            MOCLDY    40  37  89 N8        30.11F WCI  34
ELKO           CLEAR     43  40  89 CALM      30.10S
POCATELLO, ID  CLEAR     46  40  79 CALM      30.05S
BURLEY         CLEAR     48  40  73 SW8       30.03S
EVANSTON, WY   CLEAR     42  35  76 N7        30.12F
ROCK SPRINGS   CLOUDY    40  34  79 W10       30.09S WCI  33
KEMMERER         N/A     36  32  87 NW9       30.13S WCI  29

$$




USA.gov is the U.S. government's official web portal to all federal, state and local government web resources and services.